| time (UTC) | temp F | wind direction | speed MPH | gust MPH | rain 1hr in | rain 24hr in | rain mn in | humidity % | barometer mb |
| 20260903152315 | 75 | 0.0 | 0.0 | 0.00 | 0.67 | 0.11 | 84 | 1016.0 | |
| 20260903151336 | 75 | 0.0 | 1.0 | 0.00 | 0.67 | 0.11 | 84 | 1016.0 | |
| 20260903150315 | 74 | 0.0 | 1.0 | 0.00 | 0.68 | 0.11 | 84 | 1016.0 | |
| 20260903145335 | 74 | 225 | 1.0 | 2.0 | 0.00 | 0.70 | 0.11 | 84 | 1015.9 |
| 20260903144315 | 74 | 225 | 1.0 | 4.0 | 0.00 | 0.70 | 0.11 | 85 | 1015.9 |
| 20260903143335 | 73 | 270 | 1.0 | 3.0 | 0.00 | 0.71 | 0.11 | 86 | 1015.8 |
| 20260903142335 | 73 | 0.0 | 1.0 | 0.00 | 0.71 | 0.11 | 87 | 1015.8 | |
| 20260903141315 | 72 | 0.0 | 1.0 | 0.00 | 0.78 | 0.11 | 89 | 1015.7 | |
| 20260903140356 | 72 | 247 | 1.0 | 3.0 | 0.00 | 0.84 | 0.11 | 91 | 1015.8 |
| 20260903135315 | 71 | 225 | 2.0 | 5.0 | 0.00 | 0.85 | 0.11 | 92 | 1015.6 |
| 20260903134415 | 71 | 270 | 1.0 | 2.0 | 0.00 | 0.85 | 0.11 | 92 | 1016.0 |
| 20260903133355 | 71 | 270 | 1.0 | 3.0 | 0.00 | 0.85 | 0.11 | 93 | 1015.8 |
| 20260903132335 | 71 | 247 | 2.0 | 3.0 | 0.00 | 0.85 | 0.11 | 93 | 1015.8 |
| 20260903131315 | 70 | 0.0 | 0.0 | 0.00 | 0.85 | 0.11 | 93 | 1015.8 | |
| 20260903130416 | 70 | 0.0 | 1.0 | 0.00 | 0.85 | 0.11 | 94 | 1015.9 | |
| 20260903125315 | 69 | 0.0 | 1.0 | 0.00 | 0.85 | 0.11 | 94 | 1016.0 | |
| 20260903124335 | 68 | 0.0 | 0.0 | 0.00 | 0.85 | 0.11 | 94 | 1016.0 | |
| 20260903123355 | 68 | 0.0 | 0.0 | 0.00 | 0.85 | 0.11 | 93 | 1016.1 | |
| 20260903122315 | 68 | 0.0 | 0.0 | 0.00 | 0.85 | 0.11 | 94 | 1015.9 | |
| 20260903121315 | 68 | 0.0 | 0.0 | 0.00 | 0.85 | 0.11 | 93 | 1015.8 | |
| 20260903120355 | 67 | 0.0 | 0.0 | 0.00 | 0.85 | 0.11 | 93 | 1015.5 | |
| 20260903115316 | 67 | 0.0 | 0.0 | 0.00 | 0.85 | 0.11 | 93 | 1015.5 | |
| 20260903114315 | 66 | 0.0 | 0.0 | 0.00 | 0.85 | 0.11 | 93 | 1015.4 | |
| 20260903113315 | 66 | 0.0 | 0.0 | 0.00 | 0.85 | 0.11 | 93 | 1015.5 | |
| 20260903112336 | 65 | 0.0 | 0.0 | 0.00 | 0.85 | 0.11 | 93 | 1015.3 | |
| 20260903111335 | 66 | 0.0 | 0.0 | 0.00 | 0.85 | 0.11 | 93 | 1015.1 | |
| 20260903110335 | 66 | 0.0 | 0.0 | 0.00 | 0.85 | 0.11 | 93 | 1015.0 | |
| 20260903105415 | 66 | 0.0 | 0.0 | 0.00 | 0.85 | 0.11 | 93 | 1015.0 | |
| 20260903104335 | 66 | 0.0 | 0.0 | 0.00 | 0.85 | 0.11 | 93 | 1015.0 | |
| 20260903103315 | 66 | 0.0 | 0.0 | 0.00 | 0.85 | 0.11 | 93 | 1015.0 | |
| 20260903102315 | 66 | 0.0 | 0.0 | 0.01 | 0.85 | 0.11 | 93 | 1015.1 | |
| 20260903101356 | 66 | 0.0 | 0.0 | 0.01 | 0.85 | 0.11 | 93 | 1015.0 | |
| 20260903100315 | 66 | 0.0 | 0.0 | 0.01 | 0.85 | 0.11 | 93 | 1015.2 | |
| 20260903095315 | 66 | 0.0 | 0.0 | 0.01 | 0.85 | 0.11 | 93 | 1015.3 | |
| 20260903094335 | 66 | 0.0 | 0.0 | 0.01 | 0.85 | 0.11 | 93 | 1015.3 | |
| 20260903093315 | 66 | 0.0 | 0.0 | 0.01 | 0.85 | 0.11 | 93 | 1015.3 | |
| 20260903092315 | 66 | 0.0 | 0.0 | 0.00 | 0.84 | 0.10 | 93 | 1015.4 | |
| 20260903091315 | 66 | 0.0 | 0.0 | 0.00 | 0.84 | 0.10 | 93 | 1015.5 | |
| 20260903090335 | 66 | 0.0 | 0.0 | 0.00 | 0.84 | 0.10 | 93 | 1015.5 | |
| 20260903085337 | 66 | 0.0 | 0.0 | 0.00 | 0.84 | 0.10 | 93 | 1015.5 | |
| 20260903084337 | 66 | 0.0 | 0.0 | 0.00 | 0.84 | 0.10 | 93 | 1015.3 | |
| 20260903083317 | 66 | 0.0 | 0.0 | 0.00 | 0.84 | 0.10 | 93 | 1015.1 | |
| 20260903082357 | 66 | 0.0 | 0.0 | 0.00 | 0.84 | 0.10 | 93 | 1015.1 | |
| 20260903081337 | 66 | 0.0 | 0.0 | 0.00 | 0.84 | 0.10 | 93 | 1015.5 | |
| 20260903080317 | 66 | 0.0 | 0.0 | 0.00 | 0.84 | 0.10 | 93 | 1015.3 | |
| 20260903075317 | 66 | 0.0 | 0.0 | 0.00 | 0.84 | 0.10 | 93 | 1015.4 | |
| 20260903074316 | 66 | 0.0 | 0.0 | 0.00 | 0.84 | 0.10 | 93 | 1015.6 | |
| 20260903073337 | 66 | 0.0 | 0.0 | 0.00 | 0.84 | 0.10 | 93 | 1015.5 | |
| 20260903072317 | 66 | 0.0 | 0.0 | 0.00 | 0.84 | 0.10 | 93 | 1015.7 | |
| 20260903071316 | 66 | 0.0 | 0.0 | 0.00 | 0.84 | 0.10 | 93 | 1015.6 | |
| 20260903070337 | 66 | 0.0 | 0.0 | 0.00 | 0.84 | 0.10 | 92 | 1015.4 | |
| 20260903065337 | 66 | 0.0 | 0.0 | 0.00 | 0.84 | 0.10 | 92 | 1015.2 | |
| 20260903064316 | 66 | 0.0 | 0.0 | 0.00 | 0.84 | 0.10 | 92 | 1015.7 | |
| 20260903063336 | 66 | 0.0 | 0.0 | 0.00 | 0.84 | 0.10 | 92 | 1015.7 | |
| 20260903062357 | 67 | 0.0 | 0.0 | 0.00 | 0.84 | 0.10 | 92 | 1016.0 | |
| 20260903061316 | 67 | 0.0 | 0.0 | 0.00 | 0.84 | 0.10 | 92 | 1015.8 | |
| 20260903060316 | 67 | 0.0 | 0.0 | 0.00 | 0.84 | 0.10 | 92 | 1015.9 | |
| 20260903055417 | 67 | 0.0 | 0.0 | 0.00 | 0.84 | 0.10 | 92 | 1016.2 | |
| 20260903054316 | 67 | 0.0 | 0.0 | 0.01 | 0.84 | 0.10 | 92 | 1015.8 | |
| 20260903053416 | 67 | 0.0 | 0.0 | 0.01 | 0.84 | 0.10 | 92 | 1015.6 | |
| 20260903052336 | 67 | 0.0 | 1.0 | 0.03 | 0.84 | 0.10 | 91 | 1016.1 | |
| 20260903051337 | 67 | 0.0 | 0.0 | 0.06 | 0.84 | 0.10 | 91 | 1016.0 | |
| 20260903050336 | 67 | 0.0 | 0.0 | 0.09 | 0.84 | 0.10 | 91 | 1016.0 | |
| 20260903045417 | 67 | 0.0 | 0.0 | 0.11 | 0.84 | 0.10 | 91 | 1016.2 | |
| 20260903044316 | 67 | 0.0 | 0.0 | 0.16 | 0.83 | 0.09 | 91 | 1016.2 | |
| 20260903043316 | 67 | 0.0 | 0.0 | 0.23 | 0.83 | 0.09 | 91 | 1015.9 | |
| 20260903042316 | 67 | 0.0 | 0.0 | 0.23 | 0.81 | 0.07 | 91 | 1016.7 | |
| 20260903041436 | 67 | 225 | 4.0 | 7.0 | 0.22 | 0.78 | 0.04 | 91 | 1017.3 |
| 20260903040356 | 68 | 0.0 | 1.0 | 0.20 | 0.75 | 0.01 | 91 | 1017.9 | |
| 20260903035322 | 68 | 0.0 | 0.0 | 0.19 | 0.72 | 0.72 | 91 | 1018.2 | |
| 20260903034317 | 68 | 292 | 2.0 | 3.0 | 0.17 | 0.67 | 0.67 | 91 | 1018.4 |
| 20260903033317 | 68 | 270 | 3.0 | 5.0 | 0.11 | 0.60 | 0.60 | 91 | 1017.1 |
| 20260903032356 | 68 | 225 | 3.0 | 4.0 | 0.10 | 0.58 | 0.57 | 91 | 1015.9 |
| 20260903031337 | 68 | 0.0 | 2.0 | 0.10 | 0.56 | 0.56 | 90 | 1016.2 | |
| 20260903030356 | 69 | 0.0 | 0.0 | 0.11 | 0.55 | 0.55 | 90 | 1016.4 | |
| 20260903025337 | 69 | 0.0 | 1.0 | 0.13 | 0.53 | 0.53 | 90 | 1016.7 | |
| 20260903024316 | 69 | 202 | 1.0 | 4.0 | 0.29 | 0.50 | 0.50 | 90 | 1017.4 |
| 20260903023316 | 69 | 202 | 2.0 | 4.0 | 0.27 | 0.48 | 0.48 | 90 | 1018.0 |
| 20260903021336 | 68 | 0.0 | 0.0 | 0.25 | 0.45 | 0.45 | 90 | 1017.4 | |
| 20260903020437 | 69 | 0.0 | 0.0 | 0.23 | 0.43 | 0.43 | 90 | 1017.2 | |
| 20260903015316 | 69 | 112 | 2.0 | 6.0 | 0.19 | 0.39 | 0.39 | 89 | 1018.2 |
| 20260903014456 | 71 | 0 | 1.0 | 5.0 | 0.02 | 0.21 | 0.21 | 90 | 1017.3 |
| 20260903013357 | 72 | 0.0 | 0.0 | 0.02 | 0.21 | 0.21 | 90 | 1017.2 | |
| 20260903012356 | 72 | 0.0 | 2.0 | 0.02 | 0.21 | 0.21 | 90 | 1016.9 | |
| 20260903010316 | 72 | 0.0 | 0.0 | 0.01 | 0.20 | 0.20 | 89 | 1017.0 | |
| 20260903005316 | 72 | 0.0 | 0.0 | 0.01 | 0.20 | 0.20 | 89 | 1016.5 | |
| 20260903004316 | 72 | 0.0 | 0.0 | 0.00 | 0.19 | 0.19 | 89 | 1016.4 | |
| 20260903003437 | 72 | 0.0 | 0.0 | 0.00 | 0.19 | 0.19 | 89 | 1015.9 | |
| 20260903002316 | 72 | 0.0 | 0.0 | 0.00 | 0.19 | 0.19 | 89 | 1015.8 | |
| 20260903001316 | 72 | 0.0 | 0.0 | 0.00 | 0.19 | 0.19 | 89 | 1016.1 | |
| 20260903000318 | 72 | 22 | 2.0 | 4.0 | 0.00 | 0.19 | 0.19 | 89 | 1016.3 |
| 20260902235317 | 72 | 0.0 | 1.0 | 0.00 | 0.19 | 0.19 | 89 | 1016.0 | |
| 20260902234316 | 72 | 0.0 | 0.0 | 0.00 | 0.19 | 0.19 | 89 | 1016.6 | |
| 20260902233316 | 72 | 0.0 | 0.0 | 0.00 | 0.19 | 0.19 | 89 | 1016.5 | |
| 20260902232357 | 72 | 0.0 | 0.0 | 0.00 | 0.19 | 0.19 | 88 | 1016.3 | |
| 20260902231316 | 73 | 0.0 | 2.0 | 0.00 | 0.19 | 0.19 | 88 | 1016.4 | |
| 20260902230316 | 73 | 0.0 | 0.0 | 0.00 | 0.19 | 0.19 | 87 | 1016.4 | |
| 20260902225357 | 73 | 0.0 | 1.0 | 0.00 | 0.19 | 0.19 | 87 | 1016.1 | |
| 20260902224316 | 74 | 0.0 | 1.0 | 0.00 | 0.19 | 0.19 | 86 | 1016.1 | |
| 20260902223316 | 74 | 202 | 2.0 | 7.0 | 0.00 | 0.19 | 0.19 | 86 | 1016.0 |
| 20260902222316 | 74 | 0.0 | 1.0 | 0.00 | 0.19 | 0.19 | 86 | 1016.0 | |
| 20260902221357 | 75 | 0.0 | 1.0 | 0.00 | 0.19 | 0.19 | 86 | 1016.0 | |
| 20260902220336 | 75 | 90 | 1.0 | 5.0 | 0.00 | 0.19 | 0.19 | 86 | 1016.2 |
| 20260902215316 | 75 | 0.0 | 1.0 | 0.00 | 0.19 | 0.19 | 87 | 1016.4 | |
| 20260902214337 | 74 | 0.0 | 1.0 | 0.00 | 0.19 | 0.19 | 87 | 1016.4 | |
| 20260902213356 | 74 | 0.0 | 0.0 | 0.00 | 0.19 | 0.19 | 87 | 1016.5 | |
| 20260902212316 | 74 | 0.0 | 0.0 | 0.00 | 0.19 | 0.19 | 88 | 1016.8 | |
| 20260902211317 | 74 | 0.0 | 3.0 | 0.00 | 0.19 | 0.19 | 88 | 1016.7 | |
| 20260902210316 | 74 | 0.0 | 1.0 | 0.00 | 0.19 | 0.19 | 88 | 1016.9 | |
| 20260902205316 | 75 | 0.0 | 0.0 | 0.00 | 0.19 | 0.19 | 87 | 1017.0 | |
| 20260902204316 | 75 | 0.0 | 0.0 | 0.00 | 0.19 | 0.19 | 86 | 1017.1 | |
| 20260902203316 | 76 | 0.0 | 1.0 | 0.00 | 0.19 | 0.19 | 86 | 1016.8 | |
| 20260902202316 | 77 | 135 | 1.0 | 3.0 | 0.00 | 0.19 | 0.19 | 85 | 1016.6 |
| 20260902201317 | 76 | 202 | 1.0 | 2.0 | 0.00 | 0.19 | 0.19 | 87 | 1016.7 |
| 20260902200336 | 76 | 0.0 | 1.0 | 0.00 | 0.19 | 0.19 | 87 | 1016.5 | |
| 20260902195316 | 76 | 0.0 | 1.0 | 0.00 | 0.19 | 0.19 | 86 | 1016.8 | |
| 20260902194336 | 76 | 0.0 | 2.0 | 0.00 | 0.19 | 0.19 | 86 | 1017.2 | |
| 20260902193336 | 76 | 0.0 | 2.0 | 0.00 | 0.19 | 0.19 | 88 | 1017.3 | |
| 20260902192336 | 75 | 0.0 | 1.0 | 0.00 | 0.19 | 0.19 | 87 | 1017.5 | |
| 20260902191317 | 76 | 0.0 | 1.0 | 0.00 | 0.19 | 0.19 | 87 | 1017.7 | |
| 20260902190316 | 76 | 0.0 | 0.0 | 0.00 | 0.19 | 0.19 | 87 | 1017.7 | |
| 20260902185318 | 76 | 0.0 | 0.0 | 0.00 | 0.19 | 0.19 | 88 | 1017.6 | |
| 20260902184316 | 76 | 0.0 | 0.0 | 0.00 | 0.19 | 0.19 | 87 | 1017.6 | |
| 20260902183315 | 77 | 0.0 | 1.0 | 0.00 | 0.19 | 0.19 | 88 | 1017.6 | |
| 20260902182416 | 76 | 0.0 | 0.0 | 0.00 | 0.19 | 0.19 | 88 | 1017.6 | |
| 20260902181356 | 76 | 0.0 | 1.0 | 0.00 | 0.19 | 0.19 | 88 | 1017.7 | |
| 20260902175336 | 77 | 0.0 | 0.0 | 0.00 | 0.19 | 0.19 | 90 | 1018.0 | |
| 20260902174316 | 76 | 0.0 | 1.0 | 0.00 | 0.19 | 0.19 | 92 | 1018.2 | |
| 20260902173316 | 74 | 0.0 | 0.0 | 0.00 | 0.19 | 0.19 | 92 | 1018.4 | |
| 20260902172315 | 75 | 0.0 | 0.0 | 0.00 | 0.19 | 0.19 | 93 | 1018.4 | |
| 20260902171356 | 75 | 0.0 | 0.0 | 0.00 | 0.19 | 0.19 | 93 | 1018.6 | |
| 20260902170316 | 74 | 0.0 | 1.0 | 0.00 | 0.19 | 0.19 | 93 | 1018.8 | |
| 20260902165315 | 73 | 0.0 | 0.0 | 0.00 | 0.19 | 0.19 | 93 | 1018.9 | |
| 20260902164315 | 73 | 0.0 | 0.0 | 0.00 | 0.19 | 0.19 | 93 | 1018.9 | |
| 20260902163315 | 73 | 0.0 | 0.0 | 0.00 | 0.19 | 0.19 | 93 | 1018.9 | |
| 20260902162317 | 73 | 0.0 | 0.0 | 0.01 | 0.19 | 0.19 | 93 | 1019.0 | |
| 20260902161315 | 73 | 0.0 | 0.0 | 0.01 | 0.19 | 0.19 | 94 | 1018.8 | |
| 20260902160315 | 73 | 0.0 | 0.0 | 0.02 | 0.19 | 0.19 | 94 | 1018.7 | |
| 20260902155417 | 73 | 0.0 | 0.0 | 0.04 | 0.19 | 0.19 | 94 | 1018.6 | |
| 20260902154315 | 72 | 0.0 | 0.0 | 0.04 | 0.19 | 0.19 | 94 | 1018.5 | |
| 20260902153335 | 72 | 0.0 | 0.0 | 0.05 | 0.19 | 0.19 | 94 | 1018.3 |